timestamp,surface_pressure_avg,surface_temp_avg,battery_voltage,lat,long
2018-12-26 00:00:00+00:00,318.703,2.9,12.89,47.84626,-54.09684
2018-12-26 00:10:00+00:00,325.043,2.9,12.81,47.84626,-54.09684
2018-12-26 00:20:00+00:00,335.088,2.9,12.89,47.84626,-54.09684
2018-12-26 00:30:00+00:00,342.593,2.9,12.89,47.84626,-54.09684
2018-12-26 00:40:00+00:00,344.1379,2.9,12.97,47.84626,-54.09684
2018-12-26 00:50:00+00:00,344.7863,2.89,12.97,47.84626,-54.09684
2018-12-26 01:00:00+00:00,348.348,2.89,12.89,47.84626,-54.09684
2018-12-26 01:10:00+00:00,348.5945,2.96,12.81,47.84626,-54.09684
2018-12-26 01:20:00+00:00,346.4581,3.0,12.89,47.84626,-54.09684
2018-12-26 01:30:00+00:00,351.2146,3.0,12.89,47.84626,-54.09684
2018-12-26 01:40:00+00:00,354.0013,3.0,12.89,47.84626,-54.09684
2018-12-26 01:50:00+00:00,351.4713,2.96,12.97,47.84626,-54.09684
2018-12-26 02:00:00+00:00,356.3712,2.91,12.81,47.84626,-54.09684
2018-12-26 02:10:00+00:00,364.3546,2.9,12.81,47.84626,-54.09684
2018-12-26 02:20:00+00:00,361.1246,2.9,12.89,47.84626,-54.09684
2018-12-26 02:30:00+00:00,356.5763,2.9,12.89,47.84626,-54.09684
2018-12-26 02:40:00+00:00,359.6614,2.9,12.89,47.84626,-54.09684
2018-12-26 02:50:00+00:00,360.3846,3.05,12.97,47.84626,-54.09684
2018-12-26 03:00:00+00:00,354.5114,3.15,12.81,47.84626,-54.09684
2018-12-26 03:10:00+00:00,353.8046,3.2,12.81,47.84626,-54.09684
2018-12-26 03:20:00+00:00,354.9479,3.2,12.89,47.84626,-54.09684
2018-12-26 03:30:00+00:00,349.4729,3.2,12.89,47.84626,-54.09684
2018-12-26 03:40:00+00:00,341.4645,3.14,12.89,47.84626,-54.09684
2018-12-26 03:50:00+00:00,342.0779,3.14,12.89,47.84626,-54.09684
2018-12-26 04:00:00+00:00,337.3846,3.1,12.81,47.84626,-54.09684
2018-12-26 04:10:00+00:00,325.7014,3.1,12.73,47.84626,-54.09684
2018-12-26 04:20:00+00:00,315.3196,3.0,12.89,47.84626,-54.09684
2018-12-26 04:30:00+00:00,309.8681,3.03,12.89,47.84626,-54.09684
2018-12-26 04:40:00+00:00,301.6847,3.08,12.89,47.84626,-54.09684
2018-12-26 04:50:00+00:00,289.8214,3.1,12.89,47.84626,-54.09684
2018-12-26 05:00:00+00:00,283.4031,3.1,12.81,47.84626,-54.09684
2018-12-26 05:10:00+00:00,274.3664,3.1,12.73,47.84626,-54.09684
2018-12-26 05:20:00+00:00,261.2498,3.1,12.89,47.84626,-54.09684
2018-12-26 05:30:00+00:00,250.718,3.1,12.89,47.84626,-54.09684
2018-12-26 05:40:00+00:00,243.6064,3.1,12.89,47.84626,-54.09684
2018-12-26 05:50:00+00:00,234.0048,3.1,12.89,47.84626,-54.09684
2018-12-26 06:00:00+00:00,224.1848,3.1,12.81,47.84626,-54.09684
2018-12-26 06:10:00+00:00,218.2164,3.1,12.73,47.84626,-54.09684
2018-12-26 06:20:00+00:00,214.8065,3.1,12.81,47.84626,-54.09684
2018-12-26 06:30:00+00:00,208.2664,3.1,12.81,47.84626,-54.09684
2018-12-26 06:40:00+00:00,202.2898,3.0,12.89,47.84626,-54.09684
2018-12-26 06:50:00+00:00,199.6315,2.98,12.89,47.84626,-54.09684
2018-12-26 07:00:00+00:00,196.9164,2.9,12.81,47.84626,-54.09684
2018-12-26 07:10:00+00:00,194.7698,2.9,12.73,47.84626,-54.09684
2018-12-26 07:20:00+00:00,192.7248,2.9,12.81,47.84626,-54.09684
2018-12-26 07:30:00+00:00,191.3582,2.9,12.81,47.84626,-54.09684
2018-12-26 07:40:00+00:00,192.9364,2.9,12.89,47.84626,-54.09684
2018-12-26 07:50:00+00:00,195.0531,2.93,12.89,47.84626,-54.09684
2018-12-26 08:00:00+00:00,196.4315,2.9,12.81,47.84626,-54.09684
2018-12-26 08:10:00+00:00,197.7515,2.9,12.73,47.84626,-54.09684
2018-12-26 08:20:00+00:00,201.4931,2.9,12.81,47.84626,-54.09684
2018-12-26 08:30:00+00:00,206.3598,2.9,12.81,47.84626,-54.09684
2018-12-26 08:40:00+00:00,206.2614,2.9,12.89,47.84626,-54.09684
2018-12-26 08:50:00+00:00,209.6398,2.9,12.89,47.84626,-54.09684
2018-12-26 09:00:00+00:00,218.0198,2.9,12.81,47.84626,-54.09684
2018-12-26 09:10:00+00:00,221.0081,2.9,12.73,47.84626,-54.09684
2018-12-26 09:20:00+00:00,221.4348,2.9,12.81,47.84626,-54.09684
2018-12-26 09:30:00+00:00,226.8714,2.9,12.81,47.84626,-54.09684
2018-12-26 09:40:00+00:00,234.7548,2.9,12.81,47.84626,-54.09684
2018-12-26 09:50:00+00:00,234.6864,2.9,12.89,47.84626,-54.09684
2018-12-26 10:00:00+00:00,235.9948,2.8,12.73,47.84626,-54.09684
2018-12-26 10:10:00+00:00,244.1264,2.88,12.73,47.84626,-54.09684
2018-12-26 10:20:00+00:00,251.8615,2.95,12.81,47.84626,-54.09684
2018-12-26 10:30:00+00:00,255.4181,2.99,12.81,47.84626,-54.09684
2018-12-26 10:40:00+00:00,259.3047,2.9,12.81,47.84626,-54.09684
2018-12-26 10:50:00+00:00,266.0564,2.9,12.81,47.84626,-54.09684
2018-12-26 11:00:00+00:00,272.5514,2.9,12.73,47.84626,-54.09684
2018-12-26 11:10:00+00:00,277.493,2.8,12.73,47.84626,-54.09684
2018-12-26 11:20:00+00:00,285.463,2.86,12.81,47.84626,-54.09684
2018-12-26 11:30:00+00:00,292.7814,2.8,12.81,47.84626,-54.09684
2018-12-26 11:40:00+00:00,301.0447,2.8,12.81,47.84626,-54.09684
2018-12-26 11:50:00+00:00,309.1697,2.8,12.81,47.84626,-54.09684
2018-12-26 12:00:00+00:00,319.2512,2.7,12.73,47.84626,-54.09684
2018-12-26 12:10:00+00:00,327.5146,2.6,12.73,47.84626,-54.09684
2018-12-26 12:20:00+00:00,336.6013,2.5,12.81,47.84626,-54.09684
2018-12-26 12:30:00+00:00,345.9279,2.4,12.89,47.84626,-54.09684
2018-12-26 12:40:00+00:00,354.6896,2.3,12.97,47.84626,-54.09684
2018-12-26 12:50:00+00:00,363.9213,2.3,12.97,47.84626,-54.09684
2018-12-26 13:00:00+00:00,368.7262,2.28,13.05,47.84626,-54.09684
2018-12-26 13:10:00+00:00,372.7063,2.3,12.97,47.84626,-54.09684
2018-12-26 13:20:00+00:00,379.2779,2.3,13.05,47.84626,-54.09684
2018-12-26 13:30:00+00:00,385.0297,2.38,13.05,47.84626,-54.09684
2018-12-26 13:40:00+00:00,388.3329,2.39,13.13,47.84626,-54.09684
2018-12-26 13:50:00+00:00,391.9729,2.4,13.21,47.84626,-54.09684
2018-12-26 14:00:00+00:00,398.0579,2.4,13.21,47.84626,-54.09684
2018-12-26 14:10:00+00:00,400.0746,2.41,13.13,47.84626,-54.09684
2018-12-26 14:20:00+00:00,401.6795,2.48,13.29,47.84626,-54.09684
2018-12-26 14:30:00+00:00,407.5879,2.5,13.37,47.84626,-54.09684
2018-12-26 14:40:00+00:00,409.4579,2.72,13.84,47.84626,-54.09684
2018-12-26 14:50:00+00:00,401.9995,2.9,13.76,47.84626,-54.09684
2018-12-26 15:00:00+00:00,401.2962,3.0,13.6,47.84626,-54.09684
2018-12-26 15:10:00+00:00,404.4546,3.0,16.47,47.84626,-54.09684
2018-12-26 15:20:00+00:00,399.0347,3.05,15.99,47.84626,-54.09684
2018-12-26 15:30:00+00:00,393.0696,3.1,14.4,47.84626,-54.09684
2018-12-26 15:40:00+00:00,390.8846,3.1,14.32,47.84626,-54.09684
2018-12-26 15:50:00+00:00,386.3179,3.2,14.24,47.84626,-54.09684
2018-12-26 16:00:00+00:00,378.7546,3.2,15.91,47.84626,-54.09684
2018-12-26 16:10:00+00:00,372.4879,3.2,16.23,47.84626,-54.09684
2018-12-26 16:20:00+00:00,365.3863,3.21,16.87,47.84626,-54.09684
2018-12-26 16:30:00+00:00,353.968,3.27,16.71,47.84626,-54.09684
2018-12-26 16:40:00+00:00,344.7646,3.2,16.15,47.84626,-54.09684
2018-12-26 16:50:00+00:00,338.6996,3.2,15.44,47.84626,-54.09684
2018-12-26 17:00:00+00:00,328.1314,3.19,14.96,47.84626,-54.09684
2018-12-26 17:10:00+00:00,317.1846,3.1,14.96,47.84626,-54.09684
2018-12-26 17:20:00+00:00,309.6146,3.1,14.96,47.84626,-54.09684
2018-12-26 17:30:00+00:00,298.9313,3.0,14.96,47.84626,-54.09684
2018-12-26 17:40:00+00:00,286.0614,2.9,14.96,47.84626,-54.09684
2018-12-26 17:50:00+00:00,277.3065,3.0,14.72,47.84626,-54.09684
2018-12-26 18:00:00+00:00,268.3947,2.7,14.8,47.84626,-54.09684
2018-12-26 18:10:00+00:00,252.363,2.8,14.72,47.84626,-54.09684
2018-12-26 18:20:00+00:00,239.9131,2.9,14.8,47.84626,-54.09684
2018-12-26 18:30:00+00:00,234.6281,3.0,14.72,47.84626,-54.09684
2018-12-26 18:40:00+00:00,225.8047,3.09,14.72,47.84626,-54.09684
2018-12-26 18:50:00+00:00,215.5131,3.1,14.72,47.84626,-54.09684
2018-12-26 19:00:00+00:00,210.6814,3.1,14.48,47.84626,-54.09684
2018-12-26 19:10:00+00:00,206.0565,3.1,14.16,47.84626,-54.09684
2018-12-26 19:20:00+00:00,200.2231,3.1,14.08,47.84626,-54.09684
2018-12-26 19:30:00+00:00,198.4214,3.1,14.0,47.84626,-54.09684
2018-12-26 19:40:00+00:00,196.6764,3.1,13.92,47.84626,-54.09684
2018-12-26 19:50:00+00:00,192.9714,3.1,13.84,47.84626,-54.09684
2018-12-26 20:00:00+00:00,192.9798,3.1,13.68,47.84626,-54.09684
2018-12-26 20:10:00+00:00,196.7848,3.1,13.44,47.84626,-54.09684
2018-12-26 20:20:00+00:00,198.4131,3.1,13.44,47.84626,-54.09684
2018-12-26 20:30:00+00:00,197.8048,3.1,13.37,47.84626,-54.09684
2018-12-26 20:40:00+00:00,201.3531,3.1,13.37,47.84626,-54.09684
2018-12-26 20:50:00+00:00,204.9981,3.1,13.37,47.84626,-54.09684
2018-12-26 21:00:00+00:00,205.9815,3.1,13.29,47.84626,-54.09684
2018-12-26 21:10:00+00:00,210.9147,3.1,13.13,47.84626,-54.09684
2018-12-26 21:20:00+00:00,217.5081,3.1,13.21,47.84626,-54.09684
2018-12-26 21:30:00+00:00,219.1464,3.13,13.13,47.84626,-54.09684
2018-12-26 21:40:00+00:00,219.7881,3.17,13.21,47.84626,-54.09684
2018-12-26 21:50:00+00:00,225.3698,3.19,13.21,47.84626,-54.09684
2018-12-26 22:00:00+00:00,230.1281,3.2,13.05,47.84626,-54.09684
2018-12-26 22:10:00+00:00,232.5181,3.2,12.97,47.84626,-54.09684
2018-12-26 22:20:00+00:00,237.3014,3.2,13.05,47.84626,-54.09684
2018-12-26 22:30:00+00:00,241.5781,3.2,13.05,47.84626,-54.09684
2018-12-26 22:40:00+00:00,243.4314,3.19,13.13,47.84626,-54.09684
2018-12-26 22:50:00+00:00,247.2432,3.1,13.13,47.84626,-54.09684
2018-12-26 23:00:00+00:00,253.2164,3.1,13.05,47.84626,-54.09684
2018-12-26 23:10:00+00:00,256.4247,3.1,12.97,47.84626,-54.09684
2018-12-26 23:20:00+00:00,258.5514,3.1,13.05,47.84626,-54.09684
2018-12-26 23:30:00+00:00,262.9547,3.1,13.05,47.84626,-54.09684
2018-12-26 23:40:00+00:00,268.0997,3.1,13.05,47.84626,-54.09684
2018-12-26 23:50:00+00:00,270.6964,3.09,13.05,47.84626,-54.09684
